DW8542 Weather Reports


time (UTC)temp
F
wind
direction
speed
knots
gust
knots
rain 1hr
in
rain 24hr
in
rain mn
in
humidity
%
barometer
mb
20260507174537 63 0.0 0.0 0.00 0.46 0.30 51 1001.8
20260507173017 61 0.0 0.0 0.00 0.46 0.30 54 1001.9
20260507171511 61 0.0 0.0 0.00 0.46 0.30 56 1002.2
20260507170011 61 0.0 0.0 0.00 0.46 0.30 61 1002.2
20260507164509 60 0.0 0.0 0.00 0.46 0.30 58 1002.3
20260507163007 60 0.0 0.0 0.00 0.46 0.30 63 1002.4
20260507161504 59 0.0 0.0 0.00 0.46 0.30 67 1002.7
20260507160007 59 0.0 0.0 0.00 0.46 0.30 65 1003.1
20260507154501 58 0.0 0.0 0.00 0.46 0.30 68 1003.2
20260507153058 58 0.0 0.0 0.00 0.46 0.30 70 1003.1
20260507151600 56 0.0 0.0 0.00 0.46 0.30 71 1003.3
20260507150053 56 0.0 0.0 0.00 0.46 0.30 74 1003.4
20260507144551 55 0.0 0.0 0.00 0.46 0.30 82 1003.7
20260507143052 53 0.0 0.0 0.00 0.46 0.30 82 1004.0
20260507141548 53 0.0 0.0 0.00 0.46 0.30 86 1003.9
20260507140052 53 0.0 0.0 0.00 0.46 0.30 87 1004.4
20260507134543 51 0.0 0.0 0.00 0.46 0.30 91 1004.1
20260507133043 48 0.0 0.0 0.00 0.46 0.30 92 1004.2
20260507131609 48 0.0 0.0 0.00 0.46 0.30 93 1004.3
20260507130041 48 0.0 0.0 0.00 0.46 0.30 94 1004.1
20260507124550 48 0.0 0.0 0.00 0.46 0.30 94 1003.8
20260507123045 48 0.0 0.0 0.00 0.46 0.30 94 1004.3
20260507121541 48 0.0 0.0 0.00 0.46 0.30 94 1003.9
20260507120042 48 0.0 0.0 0.00 0.46 0.30 94 1004.6
20260507114539 48 0.0 0.0 0.00 0.46 0.30 94 1004.7
20260507113102 48 0.0 0.0 0.00 0.46 0.30 94 1004.6
20260507111534 48 0.0 0.0 0.00 0.46 0.30 94 1003.8
20260507110038 48 0.0 0.0 0.00 0.46 0.30 94 1003.8
20260507104532 48 0.0 0.0 0.00 0.46 0.30 94 1003.4
20260507103033 48 0.0 0.0 0.00 0.46 0.30 94 1003.5
20260507101530 48 0.0 0.0 0.00 0.46 0.30 94 1003.4
20260507100041 48 0.0 0.0 0.00 0.46 0.30 94 1003.7
20260507094527 48 0.0 0.0 0.00 0.46 0.30 94 1003.6
20260507093028 48 0.0 0.0 0.00 0.46 0.30 94 1002.5
20260507091523 49 0.0 0.0 0.00 0.46 0.30 94 1002.8
20260507090020 49 0.0 0.0 0.01 0.46 0.30 94 1003.0
20260507084539 49 0.0 0.0 0.02 0.46 0.30 94 1002.8
20260507083024 50 0.0 0.0 0.05 0.46 0.30 94 1002.6
20260507081520 50 0.0 0.0 0.10 0.46 0.30 94 1002.6
20260507080017 50 0.0 0.0 0.15 0.45 0.28 94 1002.5
20260507074517 49 0.0 0.0 0.19 0.44 0.28 94 1002.3
20260507073020 49 0.0 0.0 0.17 0.41 0.25 94 1001.8
20260507071517 49 0.0 0.0 0.13 0.36 0.20 94 1001.9
20260507070019 49 0.0 0.0 0.07 0.30 0.14 94 1002.8
20260507064512 50 0.0 0.0 0.02 0.25 0.09 94 1002.5
20260507063013 50 0.0 0.0 0.01 0.24 0.08 94 1002.3
20260507061506 50 0.0 0.0 0.01 0.23 0.07 94 1002.4
20260507060004 50 0.0 0.0 0.02 0.23 0.07 93 1002.5
20260507054503 50 0.0 0.0 0.02 0.23 0.07 94 1002.6
20260507053002 51 0.0 0.0 0.03 0.23 0.07 93 1002.6
20260507051607 51 0.0 0.0 0.02 0.22 0.06 93 1002.8
20260507050110 51 0.0 0.0 0.03 0.21 0.05 93 1002.9
20260507044558 52 0.0 0.0 0.07 0.21 0.05 93 1003.1
20260507043053 52 0.0 0.0 0.08 0.20 0.04 93 1003.3
20260507041551 52 0.0 0.0 0.11 0.20 0.04 93 1003.5
20260507040050 52 0.0 0.0 0.09 0.17 0.01 93 1003.9
20260507034547 52 0.0 0.0 0.08 0.14 0.14 93 1003.9
20260507033048 52 0.0 0.0 0.09 0.12 0.12 93 1004.1
20260507031544 52 0.0 0.0 0.08 0.09 0.09 93 1004.3
20260507030044 52 0.0 0.0 0.08 0.08 0.08 92 1004.6
20260507024545 52 0.0 0.0 0.06 0.06 0.06 92 1005.1
20260507023039 52 0.0 0.0 0.02 0.02 0.02 92 1005.7
20260507021547 53 0.0 0.0 0.01 0.01 0.01 92 1006.0
20260507020034 53 0.0 0.0 0.00 0.00 0.00 92 1006.3
20260507014531 53 0.0 0.0 0.00 0.00 0.00 92 1006.5
20260507013035 53 0.0 0.0 0.00 0.00 0.00 91 1006.7
20260507011532 53 0.0 0.0 0.00 0.00 0.00 91 1007.0
20260507010038 52 0.0 0.0 0.00 0.00 0.00 91 1007.6
20260507004525 52 0.0 0.0 0.00 0.00 0.00 91 1007.8
20260507003025 52 0.0 0.0 0.00 0.00 0.00 90 1007.7
20260507001524 53 0.0 0.0 0.00 0.00 0.00 90 1007.8
20260507000029 53 0.0 0.0 0.00 0.00 0.00 90 1007.8
20260506234524 53 0.0 0.0 0.00 0.00 0.00 89 1007.6
20260506233021 53 0.0 0.0 0.00 0.00 0.00 89 1008.5
20260506231524 54 0.0 0.0 0.00 0.00 0.00 89 1008.3
20260506230018 54 0.0 0.0 0.00 0.00 0.00 89 1008.6
20260506224517 54 0.0 0.0 0.00 0.00 0.00 89 1008.7
20260506223018 54 0.0 0.0 0.00 0.00 0.00 88 1008.8
20260506221516 54 0.0 0.0 0.00 0.00 0.00 89 1008.9
20260506220023 54 0.0 0.0 0.00 0.00 0.00 88 1008.7
20260506214514 54 0.0 0.0 0.00 0.00 0.00 88 1008.9
20260506213013 54 0.0 0.0 0.00 0.00 0.00 88 1009.0
20260506211512 55 0.0 0.0 0.00 0.00 0.00 88 1009.1
20260506210012 55 0.0 0.0 0.00 0.00 0.00 88 1009.1
20260506204511 55 0.0 0.0 0.00 0.00 0.00 88 1008.6
20260506203021 55 0.0 0.0 0.00 0.00 0.00 87 1008.7
20260506201510 55 0.0 0.0 0.00 0.00 0.00 87 1009.0
20260506200007 55 0.0 0.0 0.00 0.00 0.00 87 1009.1
20260506194511 55 0.0 0.0 0.00 0.00 0.00 87 1009.1
20260506193007 55 0.0 0.0 0.00 0.00 0.00 87 1009.3
20260506191507 55 0.0 0.0 0.00 0.00 0.00 87 1009.2
20260506190008 56 0.0 0.0 0.00 0.00 0.00 87 1009.3
20260506184505 55 0.0 0.0 0.00 0.00 0.00 87 1009.3
20260506183005 55 0.0 0.0 0.00 0.00 0.00 87 1009.6
20260506181503 55 0.0 0.0 0.00 0.00 0.00 87 1009.7
20260506180007 55 0.0 0.0 0.00 0.00 0.00 87 1009.9